contact:dominique.lefevre@mio.osupytheas.fr, maurice.libes@osupytheas.fr, didier.mallarino@osupytheas.fr
Project:EMSO http://www.emso-fr.org/EMSO-France
Depth: 2436.0 m
Title:EMSO Ligure Ouest : Data MII capteur CSTAR
DateTime,Latitude,Longitude,Instrument_Serial,Reference_Counts,Signal_Counts,Corrected_Signal_raw_counts,Calculated_Beam_c_inverse_meters,Internal_thermistor_counts
DateTime,Latitude,Longitude,Instrument_Serial,Reference_Counts,Signal_Counts,Corrected_Signal_raw_counts,Calculated_Beam_c_inverse_meters,Internal_thermistor_counts
2020-06-19T00:01:46,42.805,6.029,CST-1368DR,6177,8657,15146,0.122,551
2020-06-19T00:04:48,42.805,6.029,CST-1368DR,6177,8657,15146,0.122,551
2020-06-19T00:07:49,42.805,6.029,CST-1368DR,6177,8657,15145,0.123,550
2020-06-19T00:10:51,42.805,6.029,CST-1368DR,6177,8658,15147,0.122,551
2020-06-19T00:13:53,42.805,6.029,CST-1368DR,6177,8657,15147,0.122,551
2020-06-19T00:16:54,42.805,6.029,CST-1368DR,6177,8657,15147,0.122,551
2020-06-19T00:19:56,42.805,6.029,CST-1368DR,6177,8657,15147,0.122,551
2020-06-19T00:22:58,42.805,6.029,CST-1368DR,6177,8657,15145,0.123,551
2020-06-19T00:26:00,42.805,6.029,CST-1368DR,6177,8655,15143,0.123,551
2020-06-19T00:29:01,42.805,6.029,CST-1368DR,6177,8657,15146,0.122,551
2020-06-19T00:32:03,42.805,6.029,CST-1368DR,6177,8656,15144,0.123,551
2020-06-19T00:35:05,42.805,6.029,CST-1368DR,6177,8657,15146,0.122,551
2020-06-19T00:38:06,42.805,6.029,CST-1368DR,6177,8657,15146,0.122,551
2020-06-19T00:41:08,42.805,6.029,CST-1368DR,6177,8658,15147,0.122,551
2020-06-19T00:44:10,42.805,6.029,CST-1368DR,6177,8657,15147,0.122,551
2020-06-19T00:47:11,42.805,6.029,CST-1368DR,6177,8657,15146,0.122,551
2020-06-19T00:50:13,42.805,6.029,CST-1368DR,6177,8656,15144,0.123,550
2020-06-19T00:53:15,42.805,6.029,CST-1368DR,6177,8656,15144,0.123,551
2020-06-19T00:56:17,42.805,6.029,CST-1368DR,6177,8657,15147,0.122,551
2020-06-19T00:59:18,42.805,6.029,CST-1368DR,6177,8657,15145,0.123,551
2020-06-19T01:02:20,42.805,6.029,CST-1368DR,6177,8656,15145,0.123,551
2020-06-19T01:05:22,42.805,6.029,CST-1368DR,6177,8657,15147,0.122,551
2020-06-19T01:08:24,42.805,6.029,CST-1368DR,6177,8657,15146,0.122,551
2020-06-19T01:11:25,42.805,6.029,CST-1368DR,6177,8657,15145,0.123,551
2020-06-19T01:14:27,42.805,6.029,CST-1368DR,6177,8657,15145,0.123,551
2020-06-19T01:17:29,42.805,6.029,CST-1368DR,6177,8657,15145,0.123,551
2020-06-19T01:20:30,42.805,6.029,CST-1368DR,6177,8656,15145,0.123,551
2020-06-19T01:23:32,42.805,6.029,CST-1368DR,6177,8656,15145,0.123,551
2020-06-19T01:26:34,42.805,6.029,CST-1368DR,6177,8657,15146,0.122,551
2020-06-19T01:29:35,42.805,6.029,CST-1368DR,6177,8657,15146,0.122,551
2020-06-19T01:32:37,42.805,6.029,CST-1368DR,6177,8656,15144,0.123,551
2020-06-19T01:35:39,42.805,6.029,CST-1368DR,6177,8657,15146,0.122,551
2020-06-19T01:38:40,42.805,6.029,CST-1368DR,6177,8656,15145,0.123,551
2020-06-19T01:41:42,42.805,6.029,CST-1368DR,6177,8657,15146,0.122,550
2020-06-19T01:44:44,42.805,6.029,CST-1368DR,6177,8656,15144,0.123,551
2020-06-19T01:47:45,42.805,6.029,CST-1368DR,6177,8657,15145,0.123,551
2020-06-19T01:50:47,42.805,6.029,CST-1368DR,6177,8657,15146,0.122,551
2020-06-19T01:53:49,42.805,6.029,CST-1368DR,6176,8657,15149,0.121,550
2020-06-19T01:56:51,42.805,6.029,CST-1368DR,6177,8656,15145,0.123,551
2020-06-19T01:59:52,42.805,6.029,CST-1368DR,6176,8656,15147,0.122,551
2020-06-19T02:02:54,42.805,6.029,CST-1368DR,6177,8657,15146,0.122,551
2020-06-19T02:05:56,42.805,6.029,CST-1368DR,6176,8657,15149,0.121,551
2020-06-19T02:08:57,42.805,6.029,CST-1368DR,6176,8657,15149,0.121,551
2020-06-19T02:11:59,42.805,6.029,CST-1368DR,6176,8657,15149,0.121,551
2020-06-19T02:15:01,42.805,6.029,CST-1368DR,6176,8657,15148,0.122,551
2020-06-19T02:18:03,42.805,6.029,CST-1368DR,6176,8658,15150,0.121,551
2020-06-19T02:21:04,42.805,6.029,CST-1368DR,6176,8651,15138,0.124,551
2020-06-19T02:24:06,42.805,6.029,CST-1368DR,6176,8657,15149,0.121,550
2020-06-19T02:27:08,42.805,6.029,CST-1368DR,6176,8656,15147,0.122,551
2020-06-19T02:30:09,42.805,6.029,CST-1368DR,6176,8657,15148,0.122,551
2020-06-19T02:33:11,42.805,6.029,CST-1368DR,6176,8657,15148,0.122,551
2020-06-19T02:36:13,42.805,6.029,CST-1368DR,6176,8657,15148,0.122,551
2020-06-19T02:39:14,42.805,6.029,CST-1368DR,6176,8658,15149,0.121,551
2020-06-19T02:42:16,42.805,6.029,CST-1368DR,6176,8657,15149,0.121,551
2020-06-19T02:45:18,42.805,6.029,CST-1368DR,6176,8656,15146,0.122,551
2020-06-19T02:48:19,42.805,6.029,CST-1368DR,6176,8658,15149,0.121,551
2020-06-19T02:51:21,42.805,6.029,CST-1368DR,6176,8656,15147,0.122,551
2020-06-19T02:54:23,42.805,6.029,CST-1368DR,6176,8657,15149,0.121,551
2020-06-19T02:57:24,42.805,6.029,CST-1368DR,6176,8657,15149,0.121,551
2020-06-19T03:00:26,42.805,6.029,CST-1368DR,6176,8658,15149,0.121,551
2020-06-19T03:03:28,42.805,6.029,CST-1368DR,6176,8657,15148,0.122,551
2020-06-19T03:06:29,42.805,6.029,CST-1368DR,6176,8657,15149,0.121,551
2020-06-19T03:09:31,42.805,6.029,CST-1368DR,6176,8657,15148,0.122,551
2020-06-19T03:12:33,42.805,6.029,CST-1368DR,6176,8657,15148,0.122,551
2020-06-19T03:15:35,42.805,6.029,CST-1368DR,6176,8657,15148,0.122,551
2020-06-19T03:18:36,42.805,6.029,CST-1368DR,6176,8657,15148,0.122,551
2020-06-19T03:21:38,42.805,6.029,CST-1368DR,6176,8657,15148,0.122,551
2020-06-19T03:24:40,42.805,6.029,CST-1368DR,6176,8655,15145,0.123,551
2020-06-19T03:27:42,42.805,6.029,CST-1368DR,6176,8656,15146,0.122,551
2020-06-19T03:30:43,42.805,6.029,CST-1368DR,6176,8656,15146,0.122,551
2020-06-19T03:33:45,42.805,6.029,CST-1368DR,6176,8656,15147,0.122,550
2020-06-19T03:36:47,42.805,6.029,CST-1368DR,6176,8657,15149,0.121,551
2020-06-19T03:39:49,42.805,6.029,CST-1368DR,6176,8657,15148,0.122,551
2020-06-19T03:42:50,42.805,6.029,CST-1368DR,6176,8657,15148,0.122,551
2020-06-19T03:45:52,42.805,6.029,CST-1368DR,6176,8656,15147,0.122,551
2020-06-19T03:48:54,42.805,6.029,CST-1368DR,6176,8656,15147,0.122,550
2020-06-19T03:51:55,42.805,6.029,CST-1368DR,6176,8656,15146,0.122,551
2020-06-19T03:54:57,42.805,6.029,CST-1368DR,6176,8656,15146,0.122,551
2020-06-19T03:57:59,42.805,6.029,CST-1368DR,6176,8656,15147,0.122,551
2020-06-19T04:01:00,42.805,6.029,CST-1368DR,6176,8657,15148,0.122,551
2020-06-19T04:04:02,42.805,6.029,CST-1368DR,6176,8656,15147,0.122,551
2020-06-19T04:07:04,42.805,6.029,CST-1368DR,6176,8656,15146,0.122,551
2020-06-19T04:10:05,42.805,6.029,CST-1368DR,6176,8657,15149,0.121,551
2020-06-19T04:13:07,42.805,6.029,CST-1368DR,6176,8657,15148,0.122,551
2020-06-19T04:16:09,42.805,6.029,CST-1368DR,6176,8656,15146,0.122,551
2020-06-19T04:19:11,42.805,6.029,CST-1368DR,6176,8657,15148,0.122,551
2020-06-19T04:22:12,42.805,6.029,CST-1368DR,6176,8657,15148,0.122,551
2020-06-19T04:25:14,42.805,6.029,CST-1368DR,6176,8656,15146,0.122,551
2020-06-19T04:28:16,42.805,6.029,CST-1368DR,6176,8655,15145,0.123,551
2020-06-19T04:31:17,42.805,6.029,CST-1368DR,6176,8657,15148,0.122,550
2020-06-19T04:34:19,42.805,6.029,CST-1368DR,6176,8657,15149,0.121,551
2020-06-19T04:37:21,42.805,6.029,CST-1368DR,6176,8656,15147,0.122,551
2020-06-19T04:40:23,42.805,6.029,CST-1368DR,6176,8657,15148,0.122,551
2020-06-19T04:43:25,42.805,6.029,CST-1368DR,6176,8656,15146,0.122,551
2020-06-19T04:46:26,42.805,6.029,CST-1368DR,6176,8656,15146,0.122,551
2020-06-19T04:49:28,42.805,6.029,CST-1368DR,6176,8656,15146,0.122,551
2020-06-19T04:52:30,42.805,6.029,CST-1368DR,6176,8657,15148,0.122,551
2020-06-19T04:55:31,42.805,6.029,CST-1368DR,6176,8656,15146,0.122,551
2020-06-19T04:58:33,42.805,6.029,CST-1368DR,6176,8655,15144,0.123,551
2020-06-19T05:01:35,42.805,6.029,CST-1368DR,6176,8655,15145,0.123,551
2020-06-19T05:04:37,42.805,6.029,CST-1368DR,6176,8656,15146,0.122,551
2020-06-19T05:07:38,42.805,6.029,CST-1368DR,6176,8656,15146,0.122,551
2020-06-19T05:10:40,42.805,6.029,CST-1368DR,6176,8656,15147,0.122,551
2020-06-19T05:13:42,42.805,6.029,CST-1368DR,6176,8656,15146,0.122,551
2020-06-19T05:16:43,42.805,6.029,CST-1368DR,6176,8656,15146,0.122,550
2020-06-19T05:19:45,42.805,6.029,CST-1368DR,6176,8655,15145,0.123,551
2020-06-19T05:22:47,42.805,6.029,CST-1368DR,6176,8655,15145,0.123,551
2020-06-19T05:25:48,42.805,6.029,CST-1368DR,6176,8655,15145,0.123,551
2020-06-19T05:28:50,42.805,6.029,CST-1368DR,6176,8655,15145,0.123,551
2020-06-19T05:31:52,42.805,6.029,CST-1368DR,6176,8656,15146,0.122,551
2020-06-19T05:34:53,42.805,6.029,CST-1368DR,6176,8655,15145,0.123,551
2020-06-19T05:37:55,42.805,6.029,CST-1368DR,6176,8655,15145,0.123,551
2020-06-19T05:40:57,42.805,6.029,CST-1368DR,6176,8655,15145,0.123,551
2020-06-19T05:43:58,42.805,6.029,CST-1368DR,6176,8656,15146,0.122,551
2020-06-19T05:47:00,42.805,6.029,CST-1368DR,6176,8656,15147,0.122,551
2020-06-19T05:50:02,42.805,6.029,CST-1368DR,6176,8655,15145,0.123,551
2020-06-19T05:53:04,42.805,6.029,CST-1368DR,6176,8657,15148,0.122,551
2020-06-19T05:56:05,42.805,6.029,CST-1368DR,6176,8656,15146,0.122,551
2020-06-19T05:59:07,42.805,6.029,CST-1368DR,6176,8656,15146,0.122,551
2020-06-19T06:02:09,42.805,6.029,CST-1368DR,6176,8655,15145,0.123,551
2020-06-19T06:05:11,42.805,6.029,CST-1368DR,6176,8655,15145,0.123,551
2020-06-19T06:08:12,42.805,6.029,CST-1368DR,6176,8655,15145,0.123,551
2020-06-19T06:11:14,42.805,6.029,CST-1368DR,6176,8656,15146,0.122,550
2020-06-19T06:14:16,42.805,6.029,CST-1368DR,6176,8656,15146,0.122,551
2020-06-19T06:17:17,42.805,6.029,CST-1368DR,6176,8655,15145,0.123,551
2020-06-19T06:20:19,42.805,6.029,CST-1368DR,6176,8655,15145,0.123,551
2020-06-19T06:23:21,42.805,6.029,CST-1368DR,6176,8656,15146,0.122,551
2020-06-19T06:26:23,42.805,6.029,CST-1368DR,6176,8655,15145,0.123,551
2020-06-19T06:29:25,42.805,6.029,CST-1368DR,6176,8654,15144,0.123,551
2020-06-19T06:32:26,42.805,6.029,CST-1368DR,6176,8655,15144,0.123,551
2020-06-19T06:35:28,42.805,6.029,CST-1368DR,6176,8655,15145,0.123,551
2020-06-19T06:38:30,42.805,6.029,CST-1368DR,6176,8656,15146,0.122,551
2020-06-19T06:41:31,42.805,6.029,CST-1368DR,6176,8656,15147,0.122,551
2020-06-19T06:44:33,42.805,6.029,CST-1368DR,6176,8656,15146,0.122,551
2020-06-19T06:47:35,42.805,6.029,CST-1368DR,6176,8655,15145,0.123,551
2020-06-19T06:50:36,42.805,6.029,CST-1368DR,6176,8655,15145,0.123,551
2020-06-19T06:53:38,42.805,6.029,CST-1368DR,6176,8655,15145,0.123,551
2020-06-19T06:56:40,42.805,6.029,CST-1368DR,6176,8655,15144,0.123,551
2020-06-19T06:59:42,42.805,6.029,CST-1368DR,6176,8655,15145,0.123,551
2020-06-19T07:02:43,42.805,6.029,CST-1368DR,6176,8655,15145,0.123,551
2020-06-19T07:05:45,42.805,6.029,CST-1368DR,6176,8655,15145,0.123,551
2020-06-19T07:08:47,42.805,6.029,CST-1368DR,6176,8655,15144,0.123,551
2020-06-19T07:11:48,42.805,6.029,CST-1368DR,6176,8655,15145,0.123,551
2020-06-19T07:14:50,42.805,6.029,CST-1368DR,6176,8654,15143,0.123,551
2020-06-19T07:17:52,42.805,6.029,CST-1368DR,6176,8654,15144,0.123,551
2020-06-19T07:20:54,42.805,6.029,CST-1368DR,6176,8655,15144,0.123,551
2020-06-19T07:23:55,42.805,6.029,CST-1368DR,6176,8655,15145,0.123,551
2020-06-19T07:26:57,42.805,6.029,CST-1368DR,6176,8655,15145,0.123,551
2020-06-19T07:29:59,42.805,6.029,CST-1368DR,6176,8653,15142,0.123,551
2020-06-19T07:33:01,42.805,6.029,CST-1368DR,6175,8655,15148,0.122,551
2020-06-19T07:36:02,42.805,6.029,CST-1368DR,6176,8654,15142,0.123,551
2020-06-19T07:39:04,42.805,6.029,CST-1368DR,6176,8655,15145,0.123,551
2020-06-19T07:42:06,42.805,6.029,CST-1368DR,6175,8654,15146,0.122,551
2020-06-19T07:45:08,42.805,6.029,CST-1368DR,6175,8655,15147,0.122,551
2020-06-19T07:48:09,42.805,6.029,CST-1368DR,6175,8654,15146,0.122,551
2020-06-19T07:51:11,42.805,6.029,CST-1368DR,6175,8654,15146,0.122,551
2020-06-19T07:54:13,42.805,6.029,CST-1368DR,6176,8654,15144,0.123,551
2020-06-19T07:57:14,42.805,6.029,CST-1368DR,6175,8654,15146,0.122,551
2020-06-19T08:00:16,42.805,6.029,CST-1368DR,6175,8654,15146,0.122,551
2020-06-19T08:03:18,42.805,6.029,CST-1368DR,6175,8654,15146,0.122,551
2020-06-19T08:06:19,42.805,6.029,CST-1368DR,6175,8654,15145,0.123,551
2020-06-19T08:09:21,42.805,6.029,CST-1368DR,6175,8654,15145,0.123,551
2020-06-19T08:12:23,42.805,6.029,CST-1368DR,6175,8655,15146,0.122,551
2020-06-19T08:15:24,42.805,6.029,CST-1368DR,6175,8654,15146,0.122,551
2020-06-19T08:18:26,42.805,6.029,CST-1368DR,6175,8655,15146,0.122,551
2020-06-19T08:21:28,42.805,6.029,CST-1368DR,6175,8654,15146,0.122,551
2020-06-19T08:24:29,42.805,6.029,CST-1368DR,6175,8655,15147,0.122,551
2020-06-19T08:27:31,42.805,6.029,CST-1368DR,6175,8654,15146,0.122,551
2020-06-19T08:30:33,42.805,6.029,CST-1368DR,6175,8654,15145,0.123,551
2020-06-19T08:33:34,42.805,6.029,CST-1368DR,6175,8654,15146,0.122,551
2020-06-19T08:36:36,42.805,6.029,CST-1368DR,6175,8655,15147,0.122,551
2020-06-19T08:39:38,42.805,6.029,CST-1368DR,6175,8655,15146,0.122,551
2020-06-19T08:42:39,42.805,6.029,CST-1368DR,6175,8654,15145,0.123,551
2020-06-19T08:45:41,42.805,6.029,CST-1368DR,6175,8654,15145,0.123,551
2020-06-19T08:48:43,42.805,6.029,CST-1368DR,6175,8654,15146,0.122,551
2020-06-19T08:51:45,42.805,6.029,CST-1368DR,6175,8655,15147,0.122,551
2020-06-19T08:54:46,42.805,6.029,CST-1368DR,6175,8654,15146,0.122,551
2020-06-19T08:57:48,42.805,6.029,CST-1368DR,6175,8655,15146,0.122,551
2020-06-19T09:00:50,42.805,6.029,CST-1368DR,6175,8654,15145,0.123,551
2020-06-19T09:03:51,42.805,6.029,CST-1368DR,6175,8654,15145,0.123,551
2020-06-19T09:06:53,42.805,6.029,CST-1368DR,6175,8655,15147,0.122,551
2020-06-19T09:09:55,42.805,6.029,CST-1368DR,6175,8653,15144,0.123,551
2020-06-19T09:12:56,42.805,6.029,CST-1368DR,6175,8655,15146,0.122,551
2020-06-19T09:15:58,42.805,6.029,CST-1368DR,6175,8654,15145,0.123,551
2020-06-19T09:19:00,42.805,6.029,CST-1368DR,6175,8655,15146,0.122,551
2020-06-19T09:22:01,42.805,6.029,CST-1368DR,6175,8654,15145,0.123,551
2020-06-19T09:25:03,42.805,6.029,CST-1368DR,6175,8649,15137,0.125,551
2020-06-19T09:28:05,42.805,6.029,CST-1368DR,6175,8650,15139,0.124,551
2020-06-19T09:31:07,42.805,6.029,CST-1368DR,6175,8653,15144,0.123,551
2020-06-19T09:34:08,42.805,6.029,CST-1368DR,6175,8653,15144,0.123,551
2020-06-19T09:37:10,42.805,6.029,CST-1368DR,6175,8653,15144,0.123,551
2020-06-19T09:40:12,42.805,6.029,CST-1368DR,6175,8653,15143,0.123,551
2020-06-19T09:43:13,42.805,6.029,CST-1368DR,6175,8654,15145,0.123,551
2020-06-19T09:46:15,42.805,6.029,CST-1368DR,6175,8653,15144,0.123,551
2020-06-19T09:49:17,42.805,6.029,CST-1368DR,6175,8654,15145,0.123,551
2020-06-19T09:52:19,42.805,6.029,CST-1368DR,6175,8654,15146,0.122,551
2020-06-19T09:55:20,42.805,6.029,CST-1368DR,6175,8654,15145,0.123,551
2020-06-19T09:58:22,42.805,6.029,CST-1368DR,6175,8654,15146,0.122,551
2020-06-19T10:01:24,42.805,6.029,CST-1368DR,6175,8654,15145,0.123,550
2020-06-19T10:04:25,42.805,6.029,CST-1368DR,6175,8652,15142,0.123,551
2020-06-19T10:07:27,42.805,6.029,CST-1368DR,6175,8652,15142,0.123,551
2020-06-19T10:10:29,42.805,6.029,CST-1368DR,6175,8654,15145,0.123,551
2020-06-19T10:13:31,42.805,6.029,CST-1368DR,6175,8654,15146,0.122,551
2020-06-19T10:16:32,42.805,6.029,CST-1368DR,6175,8654,15146,0.122,551
2020-06-19T10:19:34,42.805,6.029,CST-1368DR,6175,8652,15143,0.123,551
2020-06-19T10:22:36,42.805,6.029,CST-1368DR,6175,8654,15146,0.122,551
2020-06-19T10:25:38,42.805,6.029,CST-1368DR,6175,8654,15146,0.122,551
2020-06-19T10:28:39,42.805,6.029,CST-1368DR,6175,8654,15145,0.123,551
2020-06-19T10:31:41,42.805,6.029,CST-1368DR,6175,8654,15145,0.123,551
2020-06-19T10:34:43,42.805,6.029,CST-1368DR,6175,8653,15144,0.123,551
2020-06-19T10:37:45,42.805,6.029,CST-1368DR,6175,8654,15145,0.123,551
2020-06-19T10:40:46,42.805,6.029,CST-1368DR,6175,8654,15145,0.123,551
2020-06-19T10:43:48,42.805,6.029,CST-1368DR,6175,8651,15141,0.124,551
2020-06-19T10:46:50,42.805,6.029,CST-1368DR,6175,8654,15145,0.123,551
2020-06-19T10:49:51,42.805,6.029,CST-1368DR,6175,8654,15145,0.123,551
2020-06-19T10:52:53,42.805,6.029,CST-1368DR,6175,8651,15141,0.124,551
2020-06-19T10:55:55,42.805,6.029,CST-1368DR,6175,8654,15146,0.122,551
2020-06-19T10:58:57,42.805,6.029,CST-1368DR,6175,8654,15145,0.123,551
2020-06-19T11:01:58,42.805,6.029,CST-1368DR,6175,8655,15146,0.122,551
2020-06-19T11:05:00,42.805,6.029,CST-1368DR,6175,8644,15128,0.127,550
2020-06-19T11:08:02,42.805,6.029,CST-1368DR,6175,8654,15145,0.123,551
2020-06-19T11:11:03,42.805,6.029,CST-1368DR,6175,8654,15145,0.123,551
2020-06-19T11:14:05,42.805,6.029,CST-1368DR,6175,8654,15145,0.123,551
2020-06-19T11:17:07,42.805,6.029,CST-1368DR,6175,8654,15146,0.122,551
2020-06-19T11:20:08,42.805,6.029,CST-1368DR,6175,8654,15145,0.123,551
2020-06-19T11:23:10,42.805,6.029,CST-1368DR,6175,8654,15146,0.122,551
2020-06-19T11:26:12,42.805,6.029,CST-1368DR,6175,8652,15143,0.123,551
2020-06-19T11:29:13,42.805,6.029,CST-1368DR,6175,8654,15145,0.123,551
2020-06-19T11:32:15,42.805,6.029,CST-1368DR,6175,8654,15145,0.123,551
2020-06-19T11:35:17,42.805,6.029,CST-1368DR,6175,8654,15145,0.123,551
2020-06-19T11:38:19,42.805,6.029,CST-1368DR,6175,8653,15144,0.123,551
2020-06-19T11:41:20,42.805,6.029,CST-1368DR,6175,8653,15144,0.123,551
2020-06-19T11:44:22,42.805,6.029,CST-1368DR,6175,8653,15144,0.123,551
2020-06-19T11:47:24,42.805,6.029,CST-1368DR,6175,8654,15145,0.123,551
2020-06-19T11:50:25,42.805,6.029,CST-1368DR,6175,8652,15143,0.123,551
2020-06-19T11:53:27,42.805,6.029,CST-1368DR,6175,8653,15143,0.123,551
2020-06-19T11:56:29,42.805,6.029,CST-1368DR,6175,8653,15144,0.123,551
2020-06-19T11:59:30,42.805,6.029,CST-1368DR,6175,8653,15144,0.123,551
2020-06-19T12:02:32,42.805,6.029,CST-1368DR,6175,8653,15144,0.123,551
2020-06-19T12:05:34,42.805,6.029,CST-1368DR,6175,8653,15144,0.123,550
2020-06-19T12:08:36,42.805,6.029,CST-1368DR,6175,8653,15144,0.123,551
2020-06-19T12:11:37,42.805,6.029,CST-1368DR,6175,8653,15143,0.123,551
2020-06-19T12:14:39,42.805,6.029,CST-1368DR,6175,8653,15143,0.123,551
2020-06-19T12:17:41,42.805,6.029,CST-1368DR,6175,8653,15144,0.123,551
2020-06-19T12:20:42,42.805,6.029,CST-1368DR,6175,8654,15145,0.123,551
2020-06-19T12:23:44,42.805,6.029,CST-1368DR,6175,8653,15144,0.123,550
2020-06-19T12:26:46,42.805,6.029,CST-1368DR,6175,8653,15143,0.123,551
2020-06-19T12:29:48,42.805,6.029,CST-1368DR,6175,8653,15143,0.123,551
2020-06-19T12:32:49,42.805,6.029,CST-1368DR,6175,8652,15143,0.123,551
2020-06-19T12:35:51,42.805,6.029,CST-1368DR,6175,8653,15143,0.123,551
2020-06-19T12:38:53,42.805,6.029,CST-1368DR,6175,8652,15142,0.123,551
2020-06-19T12:41:54,42.805,6.029,CST-1368DR,6175,8652,15142,0.123,551
2020-06-19T12:44:56,42.805,6.029,CST-1368DR,6175,8653,15143,0.123,551
2020-06-19T12:47:58,42.805,6.029,CST-1368DR,6175,8652,15143,0.123,551
2020-06-19T12:51:00,42.805,6.029,CST-1368DR,6175,8652,15143,0.123,551
2020-06-19T12:54:01,42.805,6.029,CST-1368DR,6175,8652,15141,0.124,551
2020-06-19T12:57:03,42.805,6.029,CST-1368DR,6175,8652,15141,0.124,551
2020-06-19T13:00:05,42.805,6.029,CST-1368DR,6175,8652,15143,0.123,551
2020-06-19T13:03:06,42.805,6.029,CST-1368DR,6175,8652,15143,0.123,551
2020-06-19T13:06:08,42.805,6.029,CST-1368DR,6175,8652,15143,0.123,551
2020-06-19T13:09:10,42.805,6.029,CST-1368DR,6175,8653,15143,0.123,551
2020-06-19T13:12:11,42.805,6.029,CST-1368DR,6175,8652,15142,0.123,551
2020-06-19T13:15:13,42.805,6.029,CST-1368DR,6174,8648,15137,0.125,551
2020-06-19T13:18:15,42.805,6.029,CST-1368DR,6175,8651,15140,0.124,551
2020-06-19T13:21:17,42.805,6.029,CST-1368DR,6175,8652,15142,0.123,551
2020-06-19T13:24:18,42.805,6.029,CST-1368DR,6175,8653,15143,0.123,550
2020-06-19T13:27:20,42.805,6.029,CST-1368DR,6175,8652,15142,0.123,551
2020-06-19T13:30:22,42.805,6.029,CST-1368DR,6175,8651,15141,0.124,551
2020-06-19T13:33:23,42.805,6.029,CST-1368DR,6175,8652,15141,0.124,551
2020-06-19T13:36:25,42.805,6.029,CST-1368DR,6175,8653,15143,0.123,551
2020-06-19T13:39:27,42.805,6.029,CST-1368DR,6175,8653,15144,0.123,551
2020-06-19T13:42:28,42.805,6.029,CST-1368DR,6175,8652,15142,0.123,551
2020-06-19T13:45:30,42.805,6.029,CST-1368DR,6175,8652,15142,0.123,551
2020-06-19T13:48:32,42.805,6.029,CST-1368DR,6174,8652,15144,0.123,551
2020-06-19T13:51:33,42.805,6.029,CST-1368DR,6174,8653,15145,0.123,551
2020-06-19T13:54:35,42.805,6.029,CST-1368DR,6174,8652,15145,0.123,551
2020-06-19T13:57:37,42.805,6.029,CST-1368DR,6174,8652,15145,0.123,551
2020-06-19T14:00:38,42.805,6.029,CST-1368DR,6174,8652,15144,0.123,551
2020-06-19T14:03:40,42.805,6.029,CST-1368DR,6174,8652,15144,0.123,551
2020-06-19T14:06:42,42.805,6.029,CST-1368DR,6174,8652,15144,0.123,551
2020-06-19T14:09:44,42.805,6.029,CST-1368DR,6174,8652,15144,0.123,551
2020-06-19T14:12:45,42.805,6.029,CST-1368DR,6174,8651,15143,0.123,551
2020-06-19T14:15:47,42.805,6.029,CST-1368DR,6174,8653,15145,0.123,551
2020-06-19T14:18:49,42.805,6.029,CST-1368DR,6174,8653,15145,0.123,551
2020-06-19T14:21:50,42.805,6.029,CST-1368DR,6174,8652,15144,0.123,551
2020-06-19T14:24:52,42.805,6.029,CST-1368DR,6174,8652,15145,0.123,551
2020-06-19T14:27:54,42.805,6.029,CST-1368DR,6174,8651,15143,0.123,551
2020-06-19T14:30:55,42.805,6.029,CST-1368DR,6174,8652,15144,0.123,551
2020-06-19T14:33:57,42.805,6.029,CST-1368DR,6174,8653,15147,0.122,551
2020-06-19T14:36:59,42.805,6.029,CST-1368DR,6174,8652,15145,0.123,550
2020-06-19T14:40:00,42.805,6.029,CST-1368DR,6174,8652,15144,0.123,551
2020-06-19T14:43:02,42.805,6.029,CST-1368DR,6174,8652,15145,0.123,551
2020-06-19T14:46:04,42.805,6.029,CST-1368DR,6174,8652,15145,0.123,551
2020-06-19T14:49:05,42.805,6.029,CST-1368DR,6174,8653,15145,0.123,551
2020-06-19T14:52:07,42.805,6.029,CST-1368DR,6174,8652,15145,0.123,551
2020-06-19T14:55:09,42.805,6.029,CST-1368DR,6174,8652,15144,0.123,551
2020-06-19T14:58:10,42.805,6.029,CST-1368DR,6174,8647,15135,0.125,551
2020-06-19T15:01:12,42.805,6.029,CST-1368DR,6174,8653,15146,0.122,551
2020-06-19T15:04:14,42.805,6.029,CST-1368DR,6174,8653,15145,0.123,551
2020-06-19T15:07:16,42.805,6.029,CST-1368DR,6174,8652,15144,0.123,551
2020-06-19T15:10:17,42.805,6.029,CST-1368DR,6174,8653,15146,0.122,551
2020-06-19T15:13:19,42.805,6.029,CST-1368DR,6174,8653,15145,0.123,551
2020-06-19T15:16:21,42.805,6.029,CST-1368DR,6174,8652,15145,0.123,551
2020-06-19T15:19:23,42.805,6.029,CST-1368DR,6174,8653,15146,0.122,551
2020-06-19T15:22:24,42.805,6.029,CST-1368DR,6174,8652,15144,0.123,551
2020-06-19T15:25:26,42.805,6.029,CST-1368DR,6174,8652,15144,0.123,550
2020-06-19T15:28:28,42.805,6.029,CST-1368DR,6174,8653,15147,0.122,551
2020-06-19T15:31:29,42.805,6.029,CST-1368DR,6174,8649,15139,0.124,551
2020-06-19T15:34:31,42.805,6.029,CST-1368DR,6174,8651,15142,0.123,551
2020-06-19T15:37:33,42.805,6.029,CST-1368DR,6174,8651,15143,0.123,551
2020-06-19T15:40:35,42.805,6.029,CST-1368DR,6174,8648,15137,0.125,551
2020-06-19T15:43:36,42.805,6.029,CST-1368DR,6174,8651,15143,0.123,551
2020-06-19T15:46:38,42.805,6.029,CST-1368DR,6174,8651,15142,0.123,551
2020-06-19T15:49:40,42.805,6.029,CST-1368DR,6174,8652,15144,0.123,551
2020-06-19T15:52:41,42.805,6.029,CST-1368DR,6174,8647,15136,0.125,551
2020-06-19T15:55:43,42.805,6.029,CST-1368DR,6174,8652,15144,0.123,551
2020-06-19T15:58:45,42.805,6.029,CST-1368DR,6174,8651,15143,0.123,551
2020-06-19T16:01:47,42.805,6.029,CST-1368DR,6174,8653,15145,0.123,551
2020-06-19T16:04:49,42.805,6.029,CST-1368DR,6174,8652,15144,0.123,551
2020-06-19T16:07:50,42.805,6.029,CST-1368DR,6174,8652,15144,0.123,551
2020-06-19T16:10:52,42.805,6.029,CST-1368DR,6174,8650,15141,0.124,551
2020-06-19T16:13:54,42.805,6.029,CST-1368DR,6174,8651,15142,0.123,551
2020-06-19T16:16:55,42.805,6.029,CST-1368DR,6174,8649,15138,0.124,551
2020-06-19T16:19:57,42.805,6.029,CST-1368DR,6174,8651,15142,0.123,551
2020-06-19T16:22:59,42.805,6.029,CST-1368DR,6174,8652,15144,0.123,550
2020-06-19T16:26:00,42.805,6.029,CST-1368DR,6174,8652,15144,0.123,551
2020-06-19T16:29:02,42.805,6.029,CST-1368DR,6174,8652,15144,0.123,551
2020-06-19T16:32:04,42.805,6.029,CST-1368DR,6174,8652,15144,0.123,551
2020-06-19T16:35:05,42.805,6.029,CST-1368DR,6174,8652,15144,0.123,551
2020-06-19T16:38:07,42.805,6.029,CST-1368DR,6174,8652,15145,0.123,551
2020-06-19T16:41:09,42.805,6.029,CST-1368DR,6174,8652,15144,0.123,551
2020-06-19T16:44:11,42.805,6.029,CST-1368DR,6174,8652,15144,0.123,551
2020-06-19T16:47:12,42.805,6.029,CST-1368DR,6174,8652,15144,0.123,551
2020-06-19T16:50:14,42.805,6.029,CST-1368DR,6174,8651,15143,0.123,551
2020-06-19T16:53:16,42.805,6.029,CST-1368DR,6174,8651,15143,0.123,551